RYR9MJ LEMH-EGCC

Flight info

Callsign RYR9MJ
Flight time N/A
Altitude 34000
Route MEROS N853 LUMAS DCT SOFFY DCT MRM DCT MTL DCT ETREK DCT MADOT DCT MOPEM DCT CACHI DCT AVLON DCT OKRIX DCT BRY DCT CLM DCT KOPOR DCT VESAN DCT RATUK DCT SOVAT L613 SANDY UN57 WELIN T420 ELVOS
Aircraft B738/M-SDE3FGILRWY/SB1

Departure

Time 2026-04-23 10:23
Airport Menorca Airport (LEMH)

Arrival

Time N/A
Airport Manchester Airport (EGCC)
Time Latitude Longitude Altitude Speed Heading
2026-04-23 09:58 39.86469 4.22396 285 ft 0 kts 99°
2026-04-23 10:16 39.86471 4.22377 286 ft 4 kts 99°
2026-04-23 10:16 39.86474 4.22350 286 ft 4 kts 103°
2026-04-23 10:17 39.86484 4.22324 292 ft 4 kts 164°
2026-04-23 10:17 39.86507 4.22325 291 ft 4 kts 189°
2026-04-23 10:17 39.86514 4.22327 290 ft 1 kts 189°
2026-04-23 10:19 39.86508 4.22325 292 ft 4 kts 189°
2026-04-23 10:19 39.86462 4.22316 290 ft 9 kts 189°
2026-04-23 10:19 39.86384 4.22300 287 ft 14 kts 189°
2026-04-23 10:19 39.86263 4.22275 287 ft 19 kts 189°
2026-04-23 10:20 39.86187 4.22182 291 ft 17 kts 278°
2026-04-23 10:20 39.86134 4.22077 296 ft 17 kts 190°
2026-04-23 10:20 39.86016 4.22053 297 ft 18 kts 189°
2026-04-23 10:20 39.85876 4.22024 295 ft 23 kts 188°
2026-04-23 10:21 39.85697 4.21988 290 ft 28 kts 189°
2026-04-23 10:21 39.85572 4.21962 286 ft 27 kts 188°
2026-04-23 10:21 39.85334 4.21913 281 ft 25 kts 189°
2026-04-23 10:21 39.85224 4.21891 280 ft 24 kts 188°
2026-04-23 10:22 39.85138 4.21720 284 ft 21 kts 279°
2026-04-23 10:22 39.85248 4.21656 284 ft 22 kts
2026-04-23 10:22 39.85542 4.21718 292 ft 72 kts
2026-04-23 10:22 39.85952 4.21801 301 ft 108 kts
2026-04-23 10:23 39.87201 4.22033 460 ft 151 kts
2026-04-23 10:23 39.87891 4.22146 840 ft 148 kts 13°
2026-04-23 10:23 39.88911 4.22353 1398 ft 154 kts 16°
2026-04-23 10:23 39.90371 4.22692 1935 ft 175 kts 15°
2026-04-23 10:24 39.91667 4.22994 2155 ft 203 kts 15°
2026-04-23 10:24 39.93134 4.23325 2345 ft 225 kts 14°
2026-04-23 10:24 39.94740 4.23671 2549 ft 244 kts 13°
2026-04-23 10:24 39.96471 4.24041 2933 ft 258 kts 13°
2026-04-23 10:25 39.97644 4.24288 3421 ft 259 kts 12°
2026-04-23 10:25 39.99431 4.24663 4134 ft 262 kts 11°
2026-04-23 10:25 40.01224 4.25040 4884 ft 262 kts 10°
2026-04-23 10:25 40.03640 4.25596 5716 ft 268 kts
2026-04-23 10:26 40.05465 4.26032 6513 ft 266 kts
2026-04-23 10:26 40.07293 4.26468 7225 ft 267 kts
2026-04-23 10:26 40.08534 4.26764 7669 ft 270 kts
2026-04-23 10:26 40.10369 4.27202 8324 ft 273 kts
2026-04-23 10:27 40.12237 4.27649 9104 ft 273 kts
2026-04-23 10:27 40.14115 4.28099 9872 ft 275 kts
2026-04-23 10:27 40.16667 4.28707 10580 ft 289 kts
2026-04-23 10:27 40.18016 4.29025 10681 ft 304 kts
2026-04-23 10:28 40.20172 4.29535 10876 ft 325 kts
2026-04-23 10:28 40.22438 4.30075 11301 ft 336 kts
2026-04-23 10:28 40.24749 4.30629 11944 ft 340 kts
2026-04-23 10:28 40.27056 4.31184 12607 ft 343 kts
2026-04-23 10:29 40.29421 4.31752 13277 ft 348 kts
2026-04-23 10:29 40.31818 4.32327 13954 ft 353 kts
2026-04-23 10:29 40.34243 4.32908 14603 ft 356 kts
2026-04-23 10:29 40.36695 4.33497 15268 ft 360 kts